Current weather by "City, St" or "zip code"  
 

Current Conditions: Beckley, Raleigh County Memorial Airport, WV

Fair


28.0 F

Last Updated on Apr 23 2021, 5:51 am EDT
Humidity: 75%
Wind Speed: S 4.6 mph
Barometer 30.14 in
Dewpoint: 21.0 F
Visibility: 10.00 mi
Precip: --
Heat Index: NA
Wind Chill: 23 F
Current conditions at:

Beckley, Raleigh County Memorial Airport, WV (KBKW)

Lat: 37.795 Lon: 81.12472

Local Radar Image active severe weather and emergency alerts image image weather storm and storm spotter reports image weather observation monitoring service image
Local
Radar
Active
Alerts
Storm Reports Obs
Monitoring

Sign-up For Email & Text Message Weather Alert Notification Services



Advertise Here

Observation History for Beckley, Raleigh County Memorial Airport, WV


Time Wind
(mph)
Vis
(mi)
Weather Precip (in) Temperature (F) Relative
Humidity
Wind
Chill
(F)
Heat
Index
(F)
Pressure
Air Dwpt altimeter
(in)
sea level
(mb)
Rmks
5:51 am EDT S 4.6 10.00 Fair -- 28.0 21.0 75% 23 NA 30.14 1022.9
4:51 am EDT SW 3.5 10.00 Fair -- 29.0 21.9 75% NA NA 30.14 1022.6
3:51 am EDT SW 3.5 10.00 Fair -- 29.0 21.9 75% NA NA 30.14 1022.9
2:51 am EDT N 0.0 10.00 Fair -- 31.0 24.1 76% NA NA 30.13 1022.2
1:51 am EDT N 0.0 10.00 Fair -- 31.0 25.0 79% NA NA 30.13 1022.5
12:51 am EDT N 0.0 10.00 Fair -- 34.0 26.1 73% NA NA 30.14 1022.5
11:51 pm EDT W 5.8 10.00 Fair -- 35.0 27.0 72% 30 NA 30.14 1022.7
10:51 pm EDT W 4.6 10.00 Fair -- 35.0 28.0 76% 31 NA 30.14 1022.6
9:51 pm EDT NW 4.6 10.00 Fair -- 36.0 28.0 73% 32 NA 30.13 1022.4
8:51 pm EDT NW 4.6 10.00 Fair -- 37.0 28.9 73% 33 NA 30.11 1021.8
7:51 pm EDT NW 9.2 10.00 Overcast -- 39.0 30.0 70% 33 NA 30.09 1021.3
6:51 pm EDT NW 9.2 10.00 Partly Cloudy -- 40.0 30.0 68% 34 NA 30.08 1021.1
5:51 pm EDT NW 11.5 G 24.2 10.00 Overcast Trace 40.0 30.0 68% 33 NA 30.07 1020.7
4:51 pm EDT NW 9.2 10.00 Partly Cloudy Trace 42.0 33.1 71% 36 NA 30.06 1020.1
3:51 pm EDT NW 12.7 G 25.3 10.00 Overcast -- 38.0 28.9 70% 30 NA 30.08 1021.0
2:51 pm EDT NW 11.5 10.00 Mostly Cloudy Trace 42.0 30.0 62% 36 NA 30.08 1020.7
1:51 pm EDT W 12.7 G 23.0 10.00 Overcast Trace 40.0 27.0 60% 33 NA 30.08 1020.8
12:51 pm EDT NW 10.4 10.00 Overcast -- 39.0 25.0 57% 32 NA 30.09 1021.3
11:51 am EDT W 11.5 10.00 Overcast Trace 37.0 25.0 62% 29 NA 30.11 1022.1
10:51 am EDT NW 6.9 10.00 Overcast -- 36.0 24.1 62% 30 NA 30.11 1022.0
9:51 am EDT NW 8.1 10.00 Overcast -- 35.0 26.1 70% 28 NA 30.09 1021.8
8:51 am EDT W 9.2 10.00 A Few Clouds -- 33.0 26.1 75% 25 NA 30.08 1021.5
7:51 am EDT W 6.9 10.00 Fair -- 30.0 26.1 85% 23 NA 30.08 1021.4
6:51 am EDT W 6.9 10.00 Fair -- 28.0 24.1 85% 21 NA 30.06 1021.0

Regional Weather Observation


Logan County Airport, WV (K6L4)

Fair
32.0 F

Pineville, Kee Field Airport, WV (KI16)

NULL
38.0 F

Charleston, Yeager Airport, WV (KCRW)

A Few Clouds
28.0 F

Bluefield, Mercer County Airport, WV (KBLF)

Fair
33.0 F

Lewisburg / Greenbrier, WV (KLWB)

Fair
26.0 F

Tazewell County Airport, VA (KJFZ)

Fair
NULL F

Advertise Here


Advertise Here